Orange, MA

1:45 PM EST on February 12, 2016 (GMT -0500)
Orange Municipal

Weather History for KORE - May, 2013

Change the Weather History Date:

Thursday, May 16, 2013

  Actual Average Record
Temperature  
Mean Temperature 58 °F -  
Max Temperature 79 °F 65 °F 82 °F (1998)
Min Temperature 37 °F 40 °F 30 °F (2000)
Degree Days  
Heating Degree Days 7    
Growing Degree Days 8 (Base 50)    
Moisture  
Dew Point 39 °F    
Average Humidity 72    
Maximum Humidity 100    
Minimum Humidity 17    
Precipitation  
Precipitation 0.02 in - - ()
Sea Level Pressure  
Sea Level Pressure 29.70 in    
Wind  
Wind Speed 3 mph (WNW)    
Max Wind Speed 23 mph    
Max Gust Speed 43 mph    
Visibility 5 miles    
Events Fog    
Averages and records for this station are not official NWS values.
T = Trace of Precipitation, MM = Missing Value Source: NWS Daily Summary

Daily Weather History Graph

Daily Weather History Graph

Search for Another Location

Airport or City:

Trip Planner

Search our weather history database for the weather conditions in past years. The results will help you decide how hot, cold, wet, or windy it might be!

Date:

Astronomy

May. 16, 2013 Rise Set
Actual Time 5:25 AM EDT 8:05 PM EDT
Civil Twilight 4:53 AM EDT 8:38 PM EDT
Nautical Twilight 4:12 AM EDT 9:19 PM EDT
Astronomical Twilight 3:26 AM EDT 10:05 PM EDT
Moon 10:58 AM EDT (5/16) 12:22 AM EDT (5/16)
Length of Visible Light 15h 44m
Length of Day
14h 39m
Waxing Crescent, 35% of the Moon is Illuminated
May 16
Waxing Crescent
May 18
First Quarter
May 25
Full
May 31
Last Quarter
Jun 8
New

Hourly Weather History & Observations

Time (EDT) Temp. Windchill Dew Point Humidity Pressure Visibility Wind Dir Wind Speed Gust Speed Precip Events Conditions
12:04 AM 46.4 °F - 44.6 °F 93% 29.69 in 1.5 mi Calm Calm - N/A   Clear
12:06 AM 46.4 °F - 44.6 °F 93% 29.69 in 1.0 mi Calm Calm - N/A   Clear
12:13 AM 44.6 °F - 44.6 °F 100% 29.69 in 1.0 mi Calm Calm - N/A   Mist
12:16 AM 44.6 °F - 44.6 °F 100% 29.69 in 1.2 mi Calm Calm - N/A   Partly Cloudy
12:18 AM 44.6 °F - 44.6 °F 100% 29.69 in 0.8 mi Calm Calm - N/A   Mist
12:32 AM 46.4 °F - 44.6 °F 93% 29.68 in 0.5 mi Calm Calm - N/A Fog Fog
12:40 AM 44.6 °F - 44.6 °F 100% 29.69 in 0.5 mi Calm Calm - N/A Fog Fog
12:52 AM 45.0 °F - 44.1 °F 97% 29.70 in 0.5 mi Calm Calm - N/A Fog Fog
12:58 AM 44.6 °F 41.4 °F 44.6 °F 100% 29.69 in 1.2 mi South 5.8 mph - N/A   Scattered Clouds
1:00 AM 44.6 °F 41.4 °F 44.6 °F 100% 29.69 in 2.5 mi South 5.8 mph - N/A   Partly Cloudy
1:07 AM 44.6 °F - 44.6 °F 100% 29.69 in 6.0 mi Calm Calm - N/A   Partly Cloudy
1:30 AM 42.8 °F - 42.8 °F 100% 29.68 in 1.8 mi Calm Calm - N/A   Clear
1:40 AM 42.8 °F - 42.8 °F 100% 29.69 in 2.5 mi Calm Calm - N/A   Clear
1:52 AM 43.0 °F - 42.1 °F 97% 29.69 in 1.8 mi Calm Calm - N/A   Clear
1:57 AM 42.8 °F 41.1 °F 42.8 °F 100% 29.69 in 1.0 mi Variable 3.5 mph - N/A   Clear
2:12 AM 42.8 °F - 42.8 °F 100% 29.68 in 1.2 mi Calm Calm - N/A   Partly Cloudy
2:18 AM 42.8 °F - 41.0 °F 93% 29.68 in 2.0 mi Calm Calm - N/A   Partly Cloudy
2:27 AM 42.8 °F - 41.0 °F 93% 29.69 in 3.0 mi Calm Calm - N/A   Partly Cloudy
2:31 AM 42.8 °F - 41.0 °F 93% 29.68 in 1.5 mi Calm Calm - N/A   Scattered Clouds
2:33 AM 42.8 °F - 42.8 °F 100% 29.68 in 1.0 mi Calm Calm - N/A   Mist
2:41 AM 42.8 °F - 42.8 °F 100% 29.68 in 1.5 mi Calm Calm - N/A   Partly Cloudy
2:52 AM 43.0 °F - 42.1 °F 97% 29.68 in 1.0 mi Calm Calm - N/A   Mist
2:59 AM 42.8 °F - 42.8 °F 100% 29.67 in 0.5 mi Calm Calm - N/A Fog Fog
3:52 AM 43.0 °F 41.3 °F 42.1 °F 97% 29.68 in 0.2 mi Variable 3.5 mph - N/A Fog Fog
4:52 AM 39.9 °F - 39.0 °F 97% 29.68 in 0.5 mi Calm Calm - N/A Fog Fog
5:52 AM 37.9 °F - 37.0 °F 97% 29.68 in 0.2 mi Calm Calm - N/A Fog Fog
6:26 AM 39.2 °F 37.0 °F 39.2 °F 100% 29.69 in 1.2 mi NE 3.5 mph - N/A   Mostly Cloudy
6:30 AM 41.0 °F - 39.2 °F 93% 29.69 in 2.5 mi Calm Calm - N/A   Mostly Cloudy
6:37 AM 41.0 °F - 41.0 °F 100% 29.70 in 5.0 mi Calm Calm - N/A   Partly Cloudy
6:52 AM 43.0 °F - 42.1 °F 97% 29.70 in 7.0 mi Calm Calm - N/A   Clear
7:52 AM 51.1 °F - 46.9 °F 86% 29.71 in 10.0 mi Calm Calm - N/A   Clear
8:52 AM 64.0 °F - 39.9 °F 41% 29.72 in 10.0 mi WNW 11.5 mph 19.6 mph N/A   Clear
9:52 AM 68.0 °F - 37.9 °F 33% 29.73 in 10.0 mi West 13.8 mph 19.6 mph 0.02 in   Clear
10:52 AM 71.1 °F - 32.0 °F 24% 29.73 in 10.0 mi West 13.8 mph 28.8 mph N/A   Clear
11:52 AM 75.0 °F - 32.0 °F 21% 29.72 in 10.0 mi West 11.5 mph 27.6 mph N/A   Clear
12:52 PM 75.9 °F - 32.0 °F 20% 29.70 in 10.0 mi NW 15.0 mph 33.4 mph N/A   Clear
1:52 PM 78.1 °F - 35.1 °F 21% 29.69 in 10.0 mi WNW 18.4 mph 28.8 mph N/A   Clear
2:52 PM 78.1 °F - 33.1 °F 19% 29.68 in 10.0 mi WNW 23.0 mph 42.6 mph N/A   Clear
3:52 PM 78.1 °F - 32.0 °F 19% 29.67 in 10.0 mi West 18.4 mph 29.9 mph N/A   Clear
4:52 PM 79.0 °F - 30.9 °F 17% 29.67 in 10.0 mi WNW 19.6 mph 31.1 mph N/A   Clear
5:52 PM 78.1 °F - 32.0 °F 19% 29.67 in 10.0 mi West 13.8 mph 31.1 mph N/A   Clear
6:52 PM 75.9 °F - 32.0 °F 20% 29.68 in 10.0 mi WNW 11.5 mph 21.9 mph N/A   Clear
7:52 PM 72.0 °F - 30.0 °F 21% 29.72 in 10.0 mi West 8.1 mph 26.5 mph N/A   Clear
8:52 PM 69.1 °F - 27.0 °F 21% 29.75 in 10.0 mi NW 3.5 mph - N/A   Clear
9:52 PM 66.0 °F - 28.9 °F 25% 29.78 in 10.0 mi WNW 3.5 mph - N/A   Clear
10:52 PM 60.1 °F - 30.9 °F 33% 29.80 in 10.0 mi Calm Calm - N/A   Clear
11:52 PM 60.1 °F - 33.1 °F 36% 29.81 in 10.0 mi North 3.5 mph - N/A   Clear